CZ-6A DEB, 60827

Orbit data source: Space-Track

CZ-6A DEB, 60827 is space debris in LEO originally from a launch on Tue, 06 Aug 2024 UTC launched from the Taiyaun Space Center, China (TSC). Debris objects in space refer to the collection of defunct objects orbiting the Earth. Examples of debris include non-operational satellites, rocket bodies, and fragments generated from explosions, collisions, or faulty payload assembly.

Loading next visibility...
Identifier
60827, 2024-140HE
Orbit
LEO
Country
Flag of CNCN / PRC
Related business
Manufacturer
SAST
Mission
Spacecraft
Bus & Motor
Unknown
Mass
Unknown
Launch date (UTC)
2024-08-06 (2 years ago)
Launch vehicle
Unknown
Launch site
Taiyaun Space Center, China (TSC)
Object type
Payload
Rocket body
Debris
Shape & HBR
Unknown shape, 0.1 m
Radar Cross Section
Small (<0.1 m²)

Expand to show TLE details & history
Last TLE update: 13 hours ago

TLE from 13 hours ago
0 CZ-6A DEB
1 60827U 24140HE  26130.13408639  .00001009  00000-0  36026-3 0  9990
2 60827  89.0739 283.4796 0038757   9.0334 351.1552 14.33061858 88837
Epoch: 2026-05-10T03:13Z
TLE epoch observation values (Epoch: 2026-05-10T03:13:05.064Z)
Latitude
0.00002°
Longitude
7.26697°
Altitude
757.165 km
Speed
7.49 km/s
True Right ascension
18h 53m 55s
True Declination
0° 00' 00"
Sunlit
Object was in full shadow at epoch
Visualization orbit readout
Latitude
Unknown
Longitude
Unknown
Altitude
Unknown
Speed
Unknown
Apparent Right ascension
Unknown
Apparent Declination
Unknown
Sunlit
N/A
Visualization observer readout
Local Sidereal Time
00:23:25
Azimuth
Unknown
Elevation
Unknown
Doppler factor
Unknown
Orbital elements
Apogee altitude
806.183 km
Perigee altitude
750.71 km
Semi-major axis
7,156.584 km
Eccentricity
0.00388
Inclination
89.0739°
RAAN
283.4796°
Arg. of periapsis
9.0334°
True anomaly
351.08658°
Mean anomaly
351.1552°
Eccentric anomaly
351.12092°
Mean motion
3.58496 °/min
Orbital period
100.42 mins
BSTAR
0.00036026
Loading maneuver chart data...
Computing Atmospheric mass density...
Loading historical data...
Loading historical data...
Loading historical data...
Loading historical data...
Loading historical data...
Loading historical data...
Loading historical data...

Documentation

Showing up to 5 results
|